Weather 🌤️

Recent data

Temperatures

Wind

Pressure

Humidity & Precipitation

Last data
obsTime qcStatus tempAvg heatindexAvg windspeedAvg windgustAvg winddirAvg pressureAvg humidityAvg precipRate precipTotal
2026-09-01 03:59:52 0 19.6 19.6 0 4 222 1001.36 62 0 0
2026-09-01 03:54:51 0 19.7 19.7 1 4 221 1001.19 62 0 0
2026-09-01 03:49:56 0 19.8 19.8 0.6 4 232 1001.36 62 0 0
2026-09-01 03:44:51 0 19.8 19.8 1 6.1 234 1001.36 61.9 0 0
2026-09-01 03:39:56 0 19.7 19.7 0.8 6.1 217 1001.19 61.4 0 0
2026-09-01 03:34:56 0 19.8 19.8 0.4 6.1 226 1001.53 61.8 0 0
2026-09-01 03:29:54 0 19.8 19.8 1.3 6.1 231 1001.36 61.9 0 0
2026-09-01 03:24:53 0 19.9 19.9 1.8 6.1 236 1001.36 61.6 0 0
2026-09-01 03:19:56 0 19.8 19.8 1.4 6.1 236 1001.53 61.6 0 0
2026-09-01 03:14:56 0 19.9 19.9 1.4 6.1 233 1001.19 62 0 0
2026-09-01 03:09:56 0 19.9 19.9 1.4 6.1 230 1001.36 62 0 0
2026-09-01 03:04:51 0 19.9 19.9 2.1 6.1 231 1001.36 61.7 0 0

Hourly data

Temperatures

Wind

Pressure

Humidity & Precipitation

Last data
obsTime qcStatus tempAvg heatindexAvg windspeedAvg windgustAvg winddirAvg pressureAvg humidityAvg precipRate precipTotal
2026-09-01 03:59:52 0 19.8 19.8 1.1 5.6 231 1001.36 61.8 0 0
2026-09-01 02:59:56 0 20.2 20.2 2.1 4 226 1001.36 60.5 0 0
2026-09-01 01:59:55 0 20.7 20.7 0.2 2.6 178 1001.36 58.9 0 0
2026-09-01 00:59:53 0 21.3 21 0.1 6.9 199 1001.02 57.2 0 0
2026-08-31 23:59:51 0 22 21.7 3.7 11.4 232 1001.02 55.1 0 0
2026-08-31 22:59:51 0 22.6 22.4 4.6 13.5 227 1000.68 54 0 0
2026-08-31 21:59:51 0 23.4 23.2 4.9 11.9 227 1000.34 52.8 0 0
2026-08-31 20:59:56 0 24.3 24.1 7.2 16.7 230 999.83 50 0 0
2026-08-31 19:59:56 1 25.2 25 5.4 16.4 226 999.32 47.5 0 0
2026-08-31 18:59:56 1 25.7 25.6 7.6 21.1 234 999.32 46.6 0 0
2026-08-31 17:59:56 1 25.4 25.2 6.1 18.9 234 999.32 47.6 0 0
2026-08-31 16:59:56 1 25.2 25 11 25.7 239 999.32 49 0 0
2026-08-31 15:59:56 1 24.1 23.9 14.5 32.1 237 999.83 52.6 0 0
2026-08-31 14:59:52 1 24 23.8 14.2 28.2 237 1000.17 53.8 0 0
2026-08-31 13:59:56 1 23.8 23.6 10.5 22.4 235 999.83 53.1 0 0
2026-08-31 12:59:56 1 22.9 22.7 10.4 21.7 236 1000.17 56 0 0
2026-08-31 11:59:56 1 22.3 22 8.7 25.3 236 1000 55.6 0 0
2026-08-31 10:59:57 1 21 20.8 13.4 24.1 236 999.66 57.6 0 0
2026-08-31 09:59:56 1 19.7 19.7 8.7 17 235 999.32 60.3 0 0
2026-08-31 08:59:56 1 18.8 18.8 2.2 14.3 210 999.32 61.5 0 0
2026-08-31 07:59:56 0 18.5 18.5 7.1 28.6 231 998.65 62 0 0
2026-08-31 06:59:52 0 10.5 30.7 236 998.31 0 0
2026-08-31 05:59:52 0 19.7 19.7 15.4 27.5 231 997.8 61 0 0
2026-08-31 04:59:52 0 20.3 20.3 9.9 19.4 233 998.31 59.4 0 0